contact:dominique.lefevre@mio.osupytheas.fr, maurice.libes@osupytheas.fr, didier.mallarino@osupytheas.fr
Project:EMSO http://www.emso-fr.org/EMSO-France
Depth: 2436.0 m
Title:EMSO Ligure Ouest : Data MII capteur AQUADOPP
Date,Latitude,Longitude,X_East,Y_North,Z_Up,Amplitude_X,Amplitude_Y,Amplitude_Z,Batterie,SoundSpeed,Heading,Pitch,Roll,Pressure,TIS,Speed,Direction
, degrees North, degrees East, m.s-1, m.s-1,m.s-1, 1, 1, 1, Volt, m.s-1, degree, degree, degree, dbar, degree_C, m.s-1, degree
2022-05-28T00:04:03,42.805,6.029,-0.028,0.013,-0.018,104.0,105.0,103.0,13.4,1505.2,328.4,-0.8,1.8,2470.77,13.28,0.03,294.9
2022-05-28T00:07:03,42.805,6.029,-0.05,0.008,0.0,106.0,104.0,102.0,13.3,1505.2,330.0,-0.8,1.8,2470.792,13.28,0.05,279.1
2022-05-28T00:10:03,42.805,6.029,-0.023,0.015,-0.006,106.0,106.0,104.0,13.4,1505.2,330.0,-0.7,1.8,2470.767,13.29,0.027,303.1
2022-05-28T00:13:03,42.805,6.029,-0.026,0.016,-0.047,107.0,106.0,103.0,13.4,1505.2,331.2,-0.7,1.8,2470.78,13.29,0.03,301.6
2022-05-28T00:16:03,42.805,6.029,-0.018,0.002,-0.022,105.0,105.0,103.0,13.4,1505.2,330.5,-0.8,1.8,2470.788,13.29,0.018,276.3
2022-05-28T00:19:03,42.805,6.029,-0.003,0.014,-0.002,106.0,106.0,104.0,13.4,1505.2,329.4,-0.8,1.8,2470.784,13.29,0.014,347.9
2022-05-28T00:22:03,42.805,6.029,-0.03,-0.005,0.009,106.0,105.0,103.0,13.4,1505.2,331.6,-0.8,1.8,2470.751,13.29,0.03,260.5
2022-05-28T00:25:03,42.805,6.029,-0.031,-0.021,-0.017,106.0,105.0,103.0,13.4,1505.2,325.6,-0.7,1.8,2470.764,13.29,0.037,235.9
2022-05-28T00:28:03,42.805,6.029,-0.044,-0.012,-0.039,105.0,105.0,103.0,13.4,1505.2,322.7,-0.7,1.8,2470.746,13.29,0.045,254.7
2022-05-28T00:31:03,42.805,6.029,-0.016,-0.003,-0.017,106.0,106.0,102.0,13.4,1505.2,322.5,-0.8,1.8,2470.769,13.29,0.016,259.4
2022-05-28T00:34:03,42.805,6.029,-0.011,-0.012,-0.033,106.0,106.0,103.0,13.4,1505.2,329.6,-0.7,1.8,2470.718,13.29,0.016,222.5
2022-05-28T00:37:03,42.805,6.029,-0.018,0.008,-0.016,106.0,105.0,103.0,13.4,1505.2,326.8,-0.8,1.8,2470.755,13.29,0.019,294.0
2022-05-28T00:40:03,42.805,6.029,-0.013,-0.02,-0.025,105.0,105.0,104.0,13.4,1505.2,329.2,-0.7,1.8,2470.729,13.29,0.023,213.0
2022-05-28T00:43:03,42.805,6.029,-0.023,0.006,0.019,106.0,105.0,103.0,13.4,1505.2,328.9,-0.7,1.8,2470.747,13.29,0.023,284.6
2022-05-28T00:46:03,42.805,6.029,-0.024,0.015,-0.004,106.0,105.0,103.0,13.4,1505.2,321.2,-0.8,1.8,2470.703,13.29,0.028,302.0
2022-05-28T00:49:03,42.805,6.029,-0.019,0.012,0.0,105.0,104.0,104.0,13.4,1505.2,324.2,-0.8,1.8,2470.738,13.29,0.022,302.3
2022-05-28T00:52:03,42.805,6.029,-0.042,-0.003,-0.022,106.0,105.0,104.0,13.4,1505.2,327.2,-0.8,1.8,2470.747,13.29,0.042,265.9
2022-05-28T00:55:03,42.805,6.029,-0.017,0.0,-0.005,106.0,105.0,102.0,13.3,1505.2,330.1,-0.8,1.8,2470.734,13.29,0.017,270.0
2022-05-28T00:58:03,42.805,6.029,-0.031,-0.005,-0.008,107.0,106.0,103.0,13.4,1505.2,324.6,-0.8,1.8,2470.745,13.29,0.031,260.8
2022-05-28T01:04:03,42.805,6.029,-0.032,-0.017,-0.023,106.0,105.0,104.0,13.4,1505.2,328.5,-0.8,1.8,2470.758,13.28,0.036,242.0
2022-05-28T01:07:03,42.805,6.029,-0.022,-0.004,-0.019,106.0,106.0,103.0,13.3,1505.2,324.3,-0.8,1.8,2470.779,13.29,0.022,259.7
2022-05-28T01:10:03,42.805,6.029,-0.027,0.0,-0.035,104.0,104.0,106.0,13.4,1505.2,325.5,-0.8,1.8,2470.819,13.29,0.026,270.0
2022-05-28T01:13:03,42.805,6.029,-0.033,0.016,-0.02,106.0,107.0,103.0,13.3,1505.2,322.2,-0.8,1.8,2470.759,13.29,0.036,295.9
2022-05-28T01:16:03,42.805,6.029,-0.031,0.011,0.003,106.0,105.0,103.0,13.3,1505.2,326.5,-0.7,1.8,2470.726,13.29,0.032,289.5
2022-05-28T01:19:03,42.805,6.029,-0.022,0.008,-0.009,106.0,105.0,102.0,13.4,1505.2,331.0,-0.8,1.8,2470.75,13.29,0.023,290.0
2022-05-28T01:22:03,42.805,6.029,-0.009,-0.004,-0.016,105.0,106.0,101.0,13.4,1505.2,321.5,-0.8,1.8,2470.785,13.29,0.009,246.0
2022-05-28T01:25:03,42.805,6.029,-0.012,-0.014,-0.027,105.0,104.0,102.0,13.4,1505.2,328.7,-0.8,1.8,2470.773,13.29,0.018,220.6
2022-05-28T01:28:03,42.805,6.029,-0.033,0.004,0.0,106.0,104.0,103.0,13.3,1505.2,327.2,-0.8,1.8,2470.729,13.29,0.033,276.9
2022-05-28T01:31:03,42.805,6.029,-0.012,0.0,0.007,105.0,105.0,104.0,13.4,1505.2,328.5,-0.7,1.8,2470.776,13.29,0.012,270.0
2022-05-28T01:34:03,42.805,6.029,-0.02,0.0,-0.024,106.0,105.0,103.0,13.4,1505.2,326.1,-0.7,1.8,2470.758,13.29,0.02,270.0
2022-05-28T01:37:03,42.805,6.029,-0.011,-0.006,-0.002,106.0,106.0,104.0,13.4,1505.2,320.4,-0.7,1.8,2470.754,13.29,0.012,241.4
2022-05-28T01:40:03,42.805,6.029,-0.035,0.002,0.002,106.0,104.0,106.0,13.3,1505.2,333.2,-0.8,1.8,2470.755,13.29,0.035,273.3
2022-05-28T01:43:03,42.805,6.029,-0.027,0.018,-0.035,103.0,105.0,103.0,13.4,1505.2,319.9,-0.8,1.8,2470.768,13.29,0.032,303.7
2022-05-28T01:46:03,42.805,6.029,-0.015,0.004,-0.024,106.0,105.0,104.0,13.3,1505.2,327.2,-0.7,1.8,2470.707,13.29,0.015,284.9
2022-05-28T01:49:03,42.805,6.029,-0.025,-0.017,0.001,103.0,105.0,103.0,13.4,1505.2,328.2,-0.8,1.8,2470.749,13.29,0.03,235.8
2022-05-28T01:52:03,42.805,6.029,-0.041,0.002,0.015,105.0,105.0,104.0,13.4,1505.2,333.4,-0.8,1.8,2470.743,13.29,0.041,272.8
2022-05-28T01:55:03,42.805,6.029,-0.023,0.0,0.0,106.0,105.0,102.0,13.4,1505.2,327.6,-0.8,1.8,2470.751,13.29,0.023,270.0
2022-05-28T01:58:03,42.805,6.029,-0.047,-0.008,-0.016,106.0,105.0,103.0,13.4,1505.2,330.0,-0.7,1.8,2470.751,13.29,0.047,260.3
2022-05-28T02:04:03,42.805,6.029,-0.02,0.0,0.004,104.0,104.0,103.0,13.3,1505.2,328.2,-0.7,1.8,2470.77,13.28,0.02,270.0
2022-05-28T02:07:03,42.805,6.029,-0.017,0.009,-0.042,105.0,104.0,101.0,13.3,1505.2,323.6,-0.8,1.8,2470.8,13.28,0.019,297.9
2022-05-28T02:10:03,42.805,6.029,-0.023,0.004,0.005,105.0,104.0,102.0,13.4,1505.2,322.2,-0.7,1.8,2470.787,13.29,0.023,279.9
2022-05-28T02:13:03,42.805,6.029,-0.029,-0.011,-0.035,105.0,105.0,102.0,13.3,1505.2,321.4,-0.7,1.8,2470.761,13.29,0.031,249.2
2022-05-28T02:16:03,42.805,6.029,-0.019,-0.012,-0.03,106.0,104.0,103.0,13.4,1505.2,330.0,-0.7,1.8,2470.76,13.29,0.022,237.7
2022-05-28T02:19:03,42.805,6.029,-0.027,0.014,0.005,104.0,105.0,104.0,13.4,1505.2,327.4,-0.8,1.8,2470.797,13.29,0.03,297.4
2022-05-28T02:22:03,42.805,6.029,-0.019,0.0,-0.021,105.0,104.0,103.0,13.4,1505.2,327.7,-0.7,1.8,2470.762,13.29,0.019,270.0
2022-05-28T02:25:03,42.805,6.029,-0.019,-0.005,-0.001,105.0,105.0,103.0,13.3,1505.2,324.3,-0.8,1.8,2470.776,13.29,0.019,255.3
2022-05-28T02:28:03,42.805,6.029,-0.036,-0.008,-0.002,105.0,105.0,102.0,13.4,1505.2,322.4,-0.8,1.8,2470.791,13.29,0.036,257.5
2022-05-28T02:31:03,42.805,6.029,-0.015,0.011,-0.017,106.0,104.0,102.0,13.4,1505.2,329.3,-0.7,1.8,2470.761,13.29,0.018,306.3
2022-05-28T02:34:03,42.805,6.029,-0.019,0.001,0.009,105.0,105.0,103.0,13.4,1505.2,323.7,-0.8,1.8,2470.778,13.29,0.019,273.0
2022-05-28T02:37:03,42.805,6.029,-0.014,-0.011,-0.035,103.0,105.0,102.0,13.4,1505.2,322.6,-0.7,1.8,2470.767,13.29,0.017,231.8
2022-05-28T02:40:03,42.805,6.029,-0.044,0.002,0.014,104.0,106.0,104.0,13.4,1505.2,327.0,-0.8,1.8,2470.777,13.29,0.044,272.6
2022-05-28T02:43:03,42.805,6.029,-0.031,0.019,-0.003,104.0,105.0,103.0,13.4,1505.2,322.3,-0.7,1.8,2470.78,13.29,0.036,301.5
2022-05-28T02:46:03,42.805,6.029,-0.021,0.006,-0.011,106.0,105.0,102.0,13.4,1505.2,320.4,-0.8,1.8,2470.778,13.29,0.021,285.9
2022-05-28T02:49:03,42.805,6.029,-0.033,0.0,-0.022,106.0,104.0,103.0,13.4,1505.2,322.3,-0.7,1.8,2470.8,13.29,0.033,270.0
2022-05-28T02:52:03,42.805,6.029,-0.03,-0.005,0.012,104.0,104.0,104.0,13.4,1505.2,322.8,-0.7,1.8,2470.768,13.29,0.03,260.5
2022-05-28T02:55:03,42.805,6.029,0.0,-0.005,-0.025,105.0,105.0,103.0,13.3,1505.2,327.0,-0.8,1.8,2470.785,13.29,0.005,180.0
2022-05-28T02:58:03,42.805,6.029,-0.006,-0.007,-0.018,106.0,105.0,104.0,13.4,1505.2,325.1,-0.8,1.8,2470.756,13.29,0.009,220.6
2022-05-28T03:04:03,42.805,6.029,-0.027,-0.002,-0.036,105.0,105.0,104.0,13.4,1505.2,323.8,-0.8,1.8,2470.8,13.28,0.027,265.8
2022-05-28T03:07:03,42.805,6.029,-0.026,0.011,-0.015,107.0,106.0,103.0,13.3,1505.2,322.1,-0.8,1.8,2470.821,13.28,0.028,292.9
2022-05-28T03:10:03,42.805,6.029,-0.029,0.009,-0.014,106.0,105.0,104.0,13.4,1505.2,326.9,-0.7,1.8,2470.829,13.29,0.03,287.2
2022-05-28T03:13:03,42.805,6.029,-0.017,0.021,-0.022,104.0,106.0,105.0,13.4,1505.2,329.5,-0.8,1.8,2470.866,13.29,0.027,321.0
2022-05-28T03:16:03,42.805,6.029,-0.023,0.01,-0.014,106.0,105.0,102.0,13.3,1505.2,321.7,-0.8,1.8,2470.809,13.29,0.025,293.5
2022-05-28T03:19:03,42.805,6.029,-0.026,-0.008,-0.012,106.0,103.0,104.0,13.4,1505.2,324.7,-0.8,1.8,2470.828,13.29,0.027,252.9
2022-05-28T03:22:03,42.805,6.029,-0.019,0.002,-0.025,107.0,106.0,103.0,13.4,1505.2,326.4,-0.8,1.8,2470.849,13.29,0.019,276.0
2022-05-28T03:25:03,42.805,6.029,-0.035,-0.018,0.009,106.0,104.0,102.0,13.4,1505.2,321.0,-0.7,1.8,2470.846,13.29,0.039,242.8
2022-05-28T03:28:03,42.805,6.029,-0.018,-0.032,-0.003,105.0,106.0,103.0,13.3,1505.2,331.2,-0.8,1.8,2470.828,13.29,0.036,209.4
2022-05-28T03:31:03,42.805,6.029,-0.018,0.007,-0.02,105.0,106.0,103.0,13.3,1505.2,330.1,-0.8,1.8,2470.848,13.29,0.019,291.2
2022-05-28T03:34:03,42.805,6.029,-0.014,-0.012,-0.012,104.0,106.0,106.0,13.4,1505.2,324.6,-0.7,1.8,2470.781,13.29,0.018,229.4
2022-05-28T03:37:03,42.805,6.029,-0.02,0.011,0.004,106.0,105.0,104.0,13.3,1505.2,332.1,-0.8,1.8,2470.801,13.29,0.022,298.8
2022-05-28T03:40:03,42.805,6.029,-0.025,0.013,0.008,106.0,104.0,103.0,13.4,1505.2,326.5,-0.8,1.8,2470.857,13.29,0.028,297.5
2022-05-28T03:43:03,42.805,6.029,-0.041,-0.007,0.003,106.0,104.0,103.0,13.4,1505.2,323.4,-0.8,1.8,2470.85,13.29,0.041,260.3
2022-05-28T03:46:03,42.805,6.029,-0.033,0.021,0.041,104.0,104.0,103.0,13.3,1505.2,327.7,-0.8,1.8,2470.815,13.29,0.039,302.5
2022-05-28T03:49:03,42.805,6.029,-0.04,-0.01,0.01,106.0,104.0,102.0,13.3,1505.2,329.2,-0.8,1.8,2470.815,13.29,0.041,256.0
2022-05-28T03:52:03,42.805,6.029,-0.033,-0.007,-0.007,105.0,104.0,103.0,13.4,1505.2,321.7,-0.7,1.8,2470.824,13.29,0.033,258.0
2022-05-28T03:55:03,42.805,6.029,-0.027,-0.015,0.002,105.0,105.0,103.0,13.4,1505.2,332.1,-0.7,1.8,2470.832,13.29,0.03,240.9
2022-05-28T03:58:03,42.805,6.029,-0.018,0.003,-0.002,106.0,106.0,104.0,13.4,1505.2,327.0,-0.8,1.8,2470.815,13.29,0.018,279.5
2022-05-28T04:04:03,42.805,6.029,-0.023,-0.016,-0.003,106.0,105.0,105.0,13.4,1505.2,325.4,-0.7,1.8,2470.882,13.28,0.028,235.2
2022-05-28T04:07:03,42.805,6.029,-0.037,-0.009,-0.015,105.0,105.0,103.0,13.4,1505.2,328.5,-0.7,1.9,2470.863,13.28,0.038,256.3
2022-05-28T04:10:03,42.805,6.029,-0.038,0.003,0.0,105.0,104.0,105.0,13.4,1505.2,326.3,-0.8,1.8,2470.878,13.29,0.038,274.5
2022-05-28T04:13:03,42.805,6.029,-0.035,-0.001,-0.009,105.0,105.0,103.0,13.4,1505.2,332.5,-0.7,1.8,2470.836,13.29,0.035,268.4
2022-05-28T04:16:03,42.805,6.029,-0.05,0.012,-0.007,105.0,106.0,104.0,13.4,1505.2,329.9,-0.7,1.8,2470.872,13.29,0.051,283.5
2022-05-28T04:19:03,42.805,6.029,-0.007,0.011,0.008,104.0,105.0,103.0,13.3,1505.2,328.5,-0.8,1.8,2470.876,13.29,0.013,327.5
2022-05-28T04:22:03,42.805,6.029,-0.037,-0.018,-0.02,105.0,107.0,103.0,13.4,1505.2,330.8,-0.8,1.8,2470.868,13.29,0.041,244.1
2022-05-28T04:25:03,42.805,6.029,-0.035,0.004,-0.022,105.0,110.0,102.0,13.4,1505.2,323.9,-0.7,1.8,2470.925,13.29,0.035,276.5
2022-05-28T04:28:03,42.805,6.029,-0.035,-0.012,0.011,105.0,105.0,103.0,13.3,1505.2,325.1,-0.8,1.8,2470.822,13.29,0.037,251.1
2022-05-28T04:31:03,42.805,6.029,-0.041,-0.003,-0.004,107.0,106.0,102.0,13.4,1505.2,327.2,-0.7,1.8,2470.882,13.29,0.041,265.8
2022-05-28T04:34:03,42.805,6.029,-0.02,-0.023,-0.032,106.0,106.0,103.0,13.4,1505.2,333.2,-0.8,1.8,2470.88,13.29,0.03,221.0
2022-05-28T04:37:03,42.805,6.029,-0.014,0.008,0.008,105.0,107.0,103.0,13.4,1505.2,322.3,-0.7,1.8,2470.836,13.29,0.016,299.7
2022-05-28T04:40:03,42.805,6.029,-0.017,-0.01,-0.004,107.0,106.0,104.0,13.4,1505.2,323.4,-0.8,1.8,2470.883,13.29,0.019,239.5
2022-05-28T04:43:03,42.805,6.029,-0.018,-0.014,-0.032,105.0,108.0,103.0,13.3,1505.2,324.5,-0.7,1.9,2470.916,13.29,0.022,232.1
2022-05-28T04:46:03,42.805,6.029,-0.004,-0.019,-0.025,106.0,104.0,103.0,13.3,1505.2,326.1,-0.7,1.8,2470.854,13.29,0.019,191.9
2022-05-28T04:49:03,42.805,6.029,-0.027,0.0,-0.007,106.0,106.0,103.0,13.4,1505.2,324.7,-0.7,1.8,2470.895,13.29,0.026,270.0
2022-05-28T04:52:03,42.805,6.029,-0.032,-0.001,-0.01,105.0,104.0,102.0,13.3,1505.2,324.7,-0.8,1.8,2470.879,13.29,0.032,268.2
2022-05-28T04:55:03,42.805,6.029,-0.024,0.01,0.013,105.0,105.0,102.0,13.3,1505.2,330.4,-0.7,1.8,2470.872,13.29,0.026,292.6
2022-05-28T04:58:03,42.805,6.029,-0.029,0.019,-0.009,106.0,106.0,103.0,13.4,1505.2,326.5,-0.8,1.8,2470.899,13.29,0.034,303.2
2022-05-28T05:04:03,42.805,6.029,-0.015,-0.018,0.0,105.0,104.0,105.0,13.4,1505.2,325.4,-0.8,1.8,2470.903,13.28,0.023,219.8
2022-05-28T05:07:03,42.805,6.029,-0.006,-0.011,-0.022,105.0,106.0,103.0,13.4,1505.2,326.7,-0.7,1.8,2470.866,13.28,0.012,208.6
2022-05-28T05:10:03,42.805,6.029,-0.028,0.0,-0.023,106.0,105.0,103.0,13.4,1505.2,327.8,-0.7,1.9,2470.905,13.28,0.028,270.0
2022-05-28T05:13:03,42.805,6.029,-0.027,0.008,-0.003,105.0,105.0,103.0,13.4,1505.2,328.5,-0.8,1.8,2470.912,13.29,0.028,286.5
2022-05-28T05:16:03,42.805,6.029,-0.03,0.004,0.005,105.0,105.0,103.0,13.4,1505.2,324.3,-0.8,1.9,2470.866,13.29,0.03,277.6
2022-05-28T05:19:03,42.805,6.029,-0.026,0.023,-0.008,106.0,104.0,103.0,13.4,1505.2,328.9,-0.8,1.9,2470.915,13.29,0.034,311.5
2022-05-28T05:22:03,42.805,6.029,-0.035,-0.013,-0.006,105.0,104.0,103.0,13.4,1505.2,328.5,-0.8,1.8,2470.876,13.29,0.037,249.6
2022-05-28T05:25:03,42.805,6.029,-0.023,0.017,-0.009,105.0,105.0,102.0,13.4,1505.2,324.0,-0.8,1.8,2470.858,13.29,0.028,306.5
2022-05-28T05:28:03,42.805,6.029,-0.044,0.017,-0.002,105.0,104.0,102.0,13.4,1505.2,332.7,-0.8,1.8,2470.875,13.29,0.047,291.1
2022-05-28T05:31:03,42.805,6.029,-0.048,0.012,-0.004,106.0,104.0,103.0,13.4,1505.2,331.6,-0.7,1.8,2470.854,13.29,0.049,284.0
2022-05-28T05:34:03,42.805,6.029,-0.048,0.004,-0.026,105.0,105.0,103.0,13.3,1505.2,326.5,-0.8,1.8,2470.869,13.29,0.048,274.8
2022-05-28T05:37:03,42.805,6.029,-0.016,0.019,0.008,105.0,105.0,103.0,13.4,1505.2,329.5,-0.8,1.8,2470.856,13.29,0.024,319.9
2022-05-28T05:40:03,42.805,6.029,-0.038,0.0,-0.01,106.0,104.0,103.0,13.4,1505.2,331.0,-0.7,1.8,2470.862,13.29,0.038,270.0
2022-05-28T05:43:03,42.805,6.029,-0.046,0.002,-0.018,106.0,106.0,101.0,13.4,1505.2,326.9,-0.8,1.8,2470.875,13.29,0.046,272.5
2022-05-28T05:46:03,42.805,6.029,-0.012,0.021,0.013,105.0,104.0,103.0,13.3,1505.2,328.3,-0.8,1.8,2470.857,13.29,0.024,330.3
2022-05-28T05:49:03,42.805,6.029,-0.008,0.008,-0.02,105.0,104.0,103.0,13.4,1505.2,327.8,-0.7,1.8,2470.855,13.29,0.011,315.0
2022-05-28T05:52:03,42.805,6.029,-0.043,-0.007,0.01,105.0,104.0,103.0,13.4,1505.2,328.5,-0.7,1.8,2470.859,13.29,0.043,260.8
2022-05-28T05:55:03,42.805,6.029,-0.043,0.002,-0.003,105.0,106.0,102.0,13.3,1505.2,326.9,-0.7,1.8,2470.858,13.29,0.043,272.7
2022-05-28T05:58:03,42.805,6.029,-0.032,-0.002,-0.009,105.0,106.0,102.0,13.4,1505.2,322.8,-0.8,1.8,2470.881,13.29,0.032,266.4
2022-05-28T06:04:03,42.805,6.029,-0.037,0.02,-0.019,106.0,105.0,102.0,13.4,1505.2,327.3,-0.8,1.8,2470.9,13.28,0.042,298.4
2022-05-28T06:07:03,42.805,6.029,-0.033,0.028,0.007,104.0,105.0,102.0,13.4,1505.2,332.1,-0.7,1.8,2470.889,13.28,0.043,310.3
2022-05-28T06:10:03,42.805,6.029,-0.053,0.025,-0.009,105.0,104.0,102.0,13.3,1505.2,331.2,-0.7,1.8,2470.88,13.28,0.058,295.3
2022-05-28T06:13:03,42.805,6.029,-0.029,0.003,-0.023,105.0,104.0,102.0,13.4,1505.2,327.4,-0.8,1.8,2470.911,13.29,0.029,275.9
2022-05-28T06:16:03,42.805,6.029,-0.038,0.023,-0.024,105.0,104.0,103.0,13.4,1505.2,328.5,-0.8,1.8,2470.888,13.29,0.044,301.2
2022-05-28T06:19:03,42.805,6.029,-0.031,0.028,-0.005,104.0,104.0,104.0,13.4,1505.2,323.6,-0.8,1.8,2470.879,13.29,0.041,312.1
2022-05-28T06:22:03,42.805,6.029,-0.029,0.026,-0.017,104.0,104.0,103.0,13.4,1505.2,324.1,-0.8,1.8,2470.93,13.29,0.038,311.9
2022-05-28T06:25:03,42.805,6.029,-0.033,0.01,0.027,103.0,105.0,104.0,13.4,1505.2,330.3,-0.7,1.8,2470.906,13.29,0.034,286.9
2022-05-28T06:28:03,42.805,6.029,-0.059,0.018,-0.001,104.0,104.0,104.0,13.4,1505.2,322.7,-0.8,1.8,2470.897,13.29,0.061,287.0
2022-05-28T06:31:03,42.805,6.029,-0.049,0.01,-0.013,105.0,106.0,102.0,13.4,1505.2,329.0,-0.8,1.8,2470.89,13.29,0.05,281.5
2022-05-28T06:34:03,42.805,6.029,-0.029,0.0,-0.008,104.0,105.0,102.0,13.4,1505.2,333.4,-0.8,1.8,2470.884,13.29,0.028,270.0
2022-05-28T06:37:03,42.805,6.029,-0.048,0.0,-0.015,106.0,107.0,103.0,13.4,1505.2,330.4,-0.7,1.8,2470.89,13.29,0.048,270.0
2022-05-28T06:40:03,42.805,6.029,-0.045,0.004,0.0,106.0,104.0,103.0,13.4,1505.2,325.1,-0.7,1.9,2470.877,13.29,0.045,275.1
2022-05-28T06:43:03,42.805,6.029,-0.037,0.027,0.009,106.0,103.0,102.0,13.4,1505.2,329.9,-0.7,1.8,2470.846,13.29,0.045,306.1
2022-05-28T06:46:03,42.805,6.029,-0.03,0.04,0.008,104.0,104.0,101.0,13.4,1505.2,333.0,-0.7,1.8,2470.895,13.29,0.05,323.1
2022-05-28T06:49:03,42.805,6.029,-0.03,-0.002,0.02,104.0,105.0,102.0,13.3,1505.2,326.9,-0.7,1.8,2470.892,13.29,0.03,266.2
2022-05-28T06:52:03,42.805,6.029,-0.036,-0.003,-0.021,104.0,104.0,103.0,13.4,1505.2,331.9,-0.7,1.8,2470.862,13.29,0.036,265.2
2022-05-28T06:55:03,42.805,6.029,-0.037,0.002,-0.037,105.0,105.0,102.0,13.4,1505.2,329.2,-0.8,1.8,2470.871,13.29,0.037,273.1
2022-05-28T06:58:03,42.805,6.029,-0.032,0.024,0.0,106.0,104.0,104.0,13.4,1505.2,330.4,-0.8,1.8,2470.843,13.29,0.04,306.9
2022-05-28T07:04:03,42.805,6.029,-0.048,0.013,0.017,104.0,105.0,102.0,13.4,1505.2,322.1,-0.8,1.8,2470.89,13.28,0.049,285.2
2022-05-28T07:07:03,42.805,6.029,-0.026,0.0,-0.002,104.0,106.0,103.0,13.3,1505.2,326.6,-0.8,1.8,2470.894,13.28,0.026,270.0
2022-05-28T07:10:03,42.805,6.029,-0.02,0.002,-0.001,104.0,106.0,103.0,13.4,1505.2,330.2,-0.7,1.8,2470.901,13.28,0.02,275.7
2022-05-28T07:13:03,42.805,6.029,-0.038,0.016,-0.006,104.0,104.0,102.0,13.4,1505.2,329.9,-0.8,1.8,2470.842,13.28,0.041,292.8
2022-05-28T07:16:03,42.805,6.029,-0.03,-0.006,-0.024,105.0,106.0,103.0,13.4,1505.2,328.1,-0.8,1.8,2470.857,13.29,0.03,258.7
2022-05-28T07:19:03,42.805,6.029,-0.047,0.015,-0.032,105.0,104.0,102.0,13.4,1505.2,323.2,-0.8,1.8,2470.891,13.28,0.049,287.7
2022-05-28T07:22:03,42.805,6.029,-0.023,0.017,-0.006,105.0,104.0,102.0,13.3,1505.2,329.3,-0.7,1.8,2470.885,13.29,0.028,306.5
2022-05-28T07:25:03,42.805,6.029,-0.028,0.011,0.018,104.0,104.0,103.0,13.4,1505.2,328.5,-0.7,1.8,2470.846,13.29,0.03,291.4
2022-05-28T07:28:03,42.805,6.029,-0.034,0.014,0.032,104.0,104.0,102.0,13.3,1505.2,327.6,-0.7,1.8,2470.862,13.29,0.036,292.4
2022-05-28T07:31:03,42.805,6.029,-0.056,0.023,-0.008,104.0,104.0,102.0,13.3,1505.2,324.9,-0.7,1.8,2470.883,13.29,0.06,292.3
2022-05-28T07:34:03,42.805,6.029,-0.026,0.01,-0.007,106.0,104.0,103.0,13.4,1505.2,331.6,-0.8,1.9,2470.868,13.29,0.027,291.0
2022-05-28T07:37:03,42.805,6.029,-0.033,0.009,-0.018,104.0,105.0,102.0,13.4,1505.2,328.8,-0.7,1.8,2470.86,13.29,0.034,285.3
2022-05-28T07:40:03,42.805,6.029,-0.056,0.002,0.0,104.0,105.0,102.0,13.3,1505.2,329.8,-0.8,1.8,2470.884,13.29,0.056,272.0
2022-05-28T07:43:03,42.805,6.029,-0.038,0.011,0.008,103.0,104.0,103.0,13.3,1505.2,326.5,-0.8,1.8,2470.844,13.29,0.039,286.1
2022-05-28T07:46:03,42.805,6.029,-0.049,0.028,-0.024,103.0,105.0,103.0,13.4,1505.2,329.9,-0.7,1.8,2470.845,13.29,0.056,299.7
2022-05-28T07:49:03,42.805,6.029,-0.034,0.004,-0.027,104.0,105.0,102.0,13.3,1505.2,324.4,-0.8,1.8,2470.839,13.29,0.034,276.7
2022-05-28T07:52:03,42.805,6.029,-0.037,0.005,-0.034,105.0,104.0,102.0,13.3,1505.2,330.1,-0.8,1.8,2470.836,13.29,0.037,277.7
2022-05-28T07:55:03,42.805,6.029,-0.035,0.034,0.006,105.0,105.0,102.0,13.3,1505.2,323.2,-0.8,1.8,2470.843,13.29,0.048,314.2
2022-05-28T07:58:03,42.805,6.029,-0.035,0.015,0.008,105.0,105.0,102.0,13.3,1505.2,325.5,-0.8,1.8,2470.851,13.29,0.038,293.2
2022-05-28T08:04:03,42.805,6.029,-0.022,-0.008,-0.026,104.0,104.0,102.0,13.4,1505.2,328.2,-0.8,1.8,2470.867,13.28,0.023,250.0
2022-05-28T08:07:03,42.805,6.029,-0.059,0.023,-0.004,104.0,104.0,101.0,13.4,1505.2,321.2,-0.8,1.8,2470.839,13.28,0.063,291.3
2022-05-28T08:10:03,42.805,6.029,-0.045,0.014,0.0,104.0,104.0,103.0,13.4,1505.2,332.3,-0.8,1.8,2470.869,13.28,0.047,287.3
2022-05-28T08:13:03,42.805,6.029,-0.032,0.018,0.013,104.0,105.0,102.0,13.4,1505.2,327.2,-0.8,1.9,2470.84,13.28,0.036,299.4
2022-05-28T08:16:03,42.805,6.029,-0.034,0.0,-0.006,104.0,104.0,102.0,13.4,1505.2,331.9,-0.7,1.8,2470.854,13.29,0.034,270.0
2022-05-28T08:19:03,42.805,6.029,-0.044,-0.001,0.014,105.0,104.0,102.0,13.4,1505.2,321.7,-0.8,1.9,2470.842,13.29,0.044,268.7
2022-05-28T08:22:03,42.805,6.029,-0.025,0.023,0.035,105.0,104.0,101.0,13.4,1505.2,333.0,-0.7,1.8,2470.804,13.29,0.033,312.6
2022-05-28T08:25:03,42.805,6.029,-0.047,0.001,-0.012,105.0,104.0,104.0,13.4,1505.2,320.0,-0.8,1.8,2470.828,13.29,0.047,271.2
2022-05-28T08:28:03,42.805,6.029,-0.055,0.021,-0.015,105.0,105.0,101.0,13.3,1505.2,330.7,-0.8,1.8,2470.841,13.29,0.058,290.9
2022-05-28T08:31:03,42.805,6.029,-0.016,0.006,-0.006,106.0,105.0,103.0,13.4,1505.2,330.5,-0.8,1.8,2470.803,13.29,0.017,290.6
2022-05-28T08:34:03,42.805,6.029,-0.05,0.017,-0.006,105.0,105.0,102.0,13.4,1505.2,332.4,-0.7,1.8,2470.841,13.29,0.052,288.8
2022-05-28T08:37:03,42.805,6.029,-0.036,0.004,-0.016,105.0,103.0,102.0,13.3,1505.2,327.0,-0.7,1.8,2470.817,13.29,0.036,276.3
2022-05-28T08:40:03,42.805,6.029,-0.053,0.017,-0.029,104.0,104.0,102.0,13.4,1505.2,325.7,-0.8,1.8,2470.795,13.29,0.055,287.8
2022-05-28T08:43:03,42.805,6.029,-0.033,0.003,-0.025,104.0,103.0,102.0,13.4,1505.2,321.6,-0.7,1.8,2470.781,13.29,0.033,275.2
2022-05-28T08:46:03,42.805,6.029,-0.031,-0.005,-0.002,103.0,103.0,101.0,13.3,1505.2,324.1,-0.7,1.8,2470.787,13.29,0.031,260.8
2022-05-28T08:49:03,42.805,6.029,-0.047,0.011,-0.004,105.0,103.0,102.0,13.4,1505.2,322.3,-0.7,1.8,2470.766,13.29,0.048,283.2
2022-05-28T08:52:03,42.805,6.029,-0.027,-0.001,-0.024,103.0,105.0,103.0,13.3,1505.2,322.8,-0.8,1.8,2470.797,13.29,0.027,267.9
2022-05-28T08:55:03,42.805,6.029,-0.023,0.009,0.007,105.0,103.0,102.0,13.4,1505.2,327.2,-0.8,1.8,2470.761,13.29,0.024,291.4
2022-05-28T08:58:03,42.805,6.029,-0.033,0.002,-0.005,103.0,104.0,103.0,13.4,1505.2,324.1,-0.7,1.8,2470.768,13.29,0.033,273.5
2022-05-28T09:04:03,42.805,6.029,-0.037,0.013,0.008,104.0,104.0,102.0,13.4,1505.2,330.8,-0.8,1.8,2470.843,13.28,0.039,289.4
2022-05-28T09:07:03,42.805,6.029,-0.046,0.02,0.0,105.0,104.0,102.0,13.4,1505.2,332.1,-0.8,1.8,2470.83,13.28,0.05,293.5
2022-05-28T09:10:03,42.805,6.029,-0.048,0.026,0.013,105.0,103.0,101.0,13.3,1505.2,332.5,-0.7,1.8,2470.79,13.28,0.054,298.4
2022-05-28T09:13:03,42.805,6.029,-0.049,-0.002,-0.002,105.0,105.0,103.0,13.4,1505.2,331.0,-0.7,1.8,2470.812,13.28,0.049,267.7
2022-05-28T09:16:03,42.805,6.029,-0.052,0.013,-0.031,104.0,103.0,103.0,13.3,1505.2,328.8,-0.7,1.8,2470.823,13.29,0.053,284.0
2022-05-28T09:19:03,42.805,6.029,-0.041,0.017,-0.01,103.0,104.0,102.0,13.3,1505.2,326.3,-0.8,1.8,2470.815,13.29,0.044,292.5
2022-05-28T09:22:03,42.805,6.029,-0.027,0.014,0.0,103.0,105.0,101.0,13.4,1505.2,320.4,-0.8,1.8,2470.838,13.29,0.03,297.4
2022-05-28T09:25:03,42.805,6.029,-0.051,0.012,-0.005,105.0,104.0,101.0,13.4,1505.2,331.6,-0.8,1.8,2470.798,13.29,0.052,283.2
2022-05-28T09:28:03,42.805,6.029,-0.044,0.016,0.015,105.0,104.0,102.0,13.4,1505.2,328.7,-0.8,1.8,2470.778,13.29,0.046,290.0
2022-05-28T09:31:03,42.805,6.029,-0.048,0.012,-0.007,105.0,105.0,102.0,13.3,1505.2,333.0,-0.8,1.9,2470.778,13.29,0.049,284.0
2022-05-28T09:34:03,42.805,6.029,-0.033,0.016,-0.005,104.0,105.0,102.0,13.4,1505.2,329.8,-0.8,1.8,2470.748,13.29,0.036,295.9
2022-05-28T09:37:03,42.805,6.029,-0.046,0.002,-0.033,105.0,107.0,101.0,13.4,1505.2,328.2,-0.8,1.8,2470.795,13.29,0.046,272.5
2022-05-28T09:40:03,42.805,6.029,-0.056,0.01,-0.006,104.0,104.0,102.0,13.4,1505.2,326.0,-0.7,1.8,2470.743,13.29,0.056,280.1
2022-05-28T09:43:03,42.805,6.029,-0.042,0.011,-0.014,104.0,104.0,102.0,13.4,1505.2,328.1,-0.8,1.8,2470.735,13.29,0.043,284.7
2022-05-28T09:46:03,42.805,6.029,-0.043,-0.009,-0.024,104.0,103.0,103.0,13.4,1505.2,323.3,-0.7,1.8,2470.775,13.29,0.043,258.2
2022-05-28T09:49:03,42.805,6.029,-0.04,-0.005,0.0,105.0,104.0,103.0,13.3,1505.2,326.3,-0.8,1.8,2470.747,13.29,0.04,262.9
2022-05-28T09:52:03,42.805,6.029,-0.05,0.012,0.001,104.0,105.0,102.0,13.3,1505.2,324.5,-0.7,1.8,2470.754,13.29,0.051,283.5
2022-05-28T09:55:03,42.805,6.029,-0.047,0.005,-0.001,105.0,104.0,102.0,13.4,1505.2,325.0,-0.8,1.8,2470.725,13.29,0.047,276.1